Location: Casper
(42.8670°N, 106.3130°W)
Time: 06:13:02
(UTC-06:00)

Daily predictions for brighter satellites

Satellite Brightness Start Highest point End
(mag) Time Altitude Azimuth Time Altitude Azimuth Time Altitude Azimuth
Cosmos 1934 Rocket 4.0 20:00:36 10° S 20:06:40 66° E 20:12:51 10° NNE
Cosmos 2227 Rocket 2.2 20:04:04 10° NNW 20:09:46 75° ENE 20:15:24 10° SSE
HJ-1C 3.9 20:08:29 10° S 20:11:44 62° W 20:15:01 10° NNW
Meteor 1-29 3.1 20:10:54 10° N 20:14:21 80° WNW 20:17:49 10° SSW
FengYun 1-2 T 4.3 20:09:03 10° SSE 20:14:41 82° ENE 20:20:19 10° NNW
OAO 2 Rocket 4.3 20:13:42 10° SW 20:18:07 32° S 20:22:36 10° ESE
Cosmos 2297 Rocket 2.2 20:19:10 10° NNW 20:24:50 72° ENE 20:30:28 10° SSE
Cosmos 1346 Rocket 3.0 20:21:28 10° NNW 20:25:26 78° W 20:29:24 10° S
Cosmos 2082 3.8 20:20:03 10° NNW 20:25:42 88° WSW 20:31:20 10° SSE
OTV 4 2.7 20:25:30 10° WSW 20:27:24 16° SSW 20:29:18 10° SSE
ALOS 2.2 20:22:54 10° SSE 20:27:33 76° ENE 20:32:14 10° N
USA 186 1.9 20:25:03 10° SSE 20:27:59 45° ENE 20:30:43 10° N
Cosmos 1939 Rocket 4.5 20:25:04 10° ESE 20:28:07 20° ENE 20:31:09 10° NNE
Meteor 1-5 Rocket 4.3 20:24:17 10° SSW 20:29:38 80° W 20:35:10 10° N
Helios 1A 4.3 20:27:15 10° S 20:31:13 42° W 20:35:13 10° NNW
Cosmos 1515 4.2 20:30:02 10° N 20:33:40 39° ENE 20:37:16 10° SSE
Cosmos 1461 4.1 20:35:10 10° NW 20:38:57 39° WSW 20:42:37 10° S
SL-24 R/B - RUBIN 2 4.3 20:39:16 10° SSW 20:45:05 74° ESE 20:51:36 10° NE
CZ-4B DEB 4.2 20:43:43 10° S 20:46:50 41° W 20:49:59 10° NNW
Tiangong 1 1.0 20:45:51 10° W 20:48:57 77° S 20:50:47 22° ESE
Cosmos 1743 3.7 20:48:12 15° SE 20:50:39 27° E 20:53:59 10° NNE
BREEZE-M DEB (TANK) 2.6 20:49:22 10° NW 20:51:20 34° NNE 20:53:27 16° E
Cosmos 2173 Rocket 4.4 20:46:15 10° SSE 20:52:08 42° E 20:58:01 10° NNE
RESURS DK-1 2.7 20:48:58 10° NNW 20:52:59 47° ENE 20:55:34 20° SE
Cosmos 1605 Rocket 4.3 20:51:22 10° SSW 20:57:41 73° W 21:03:57 10° N
H-2A R/B 3.1 20:57:54 20° ESE 20:59:31 27° ENE 21:03:01 10° N
Cosmos 1697 Rocket 2.6 20:55:24 10° SSW 21:00:59 66° ESE 21:06:35 10° NNE
Cosmos 1626 Rocket 3.9 20:57:24 10° NNW 21:01:47 68° W 21:06:05 10° S
Cosmos 1066 Rocket 4.2 20:56:20 10° N 21:02:01 70° ENE 21:07:44 10° SSE
Iridium 4 Rocket 3.3 20:58:01 10° N 21:03:05 88° E 21:07:39 10° S
YAOGAN 11 4.1 21:01:49 15° SSE 21:05:33 69° ENE 21:10:00 10° N
Cosmos 2084 3.6 21:02:49 10° NW 21:06:51 64° SW 21:09:46 19° SSE
Envisat 3.2 21:03:38 19° SE 21:07:04 50° ENE 21:11:59 10° N
Cosmos 2100 Rocket 4.0 21:01:19 10° S 21:07:27 60° E 21:13:33 10° NNE
Cosmos 2298 Rocket 4.1 21:02:08 10° NNW 21:07:28 80° WSW 21:12:23 12° SSE
Cosmos 1937 Rocket 3.5 21:03:17 10° NNW 21:08:34 70° ENE 21:12:16 20° SSE
Cosmos 1602 Rocket 4.3 21:07:12 10° NNW 21:11:34 53° W 21:15:51 10° S
SL-16 R/B 3.8 21:13:10 16° E 21:13:10 16° E 21:15:24 10° ENE
Cosmos 1758 Rocket 4.3 21:10:08 10° N 21:14:04 32° ENE 21:15:05 28° ESE
H-2A R/B 4.4 21:12:45 10° SSW 21:16:18 34° W 21:19:56 10° NNW
Cosmos 2061 Rocket 4.0 21:11:37 10° S 21:17:50 65° E 21:24:02 10° NNE
ARGOS 4.4 21:16:24 21° E 21:18:00 24° ENE 21:22:16 10° N
Cosmos 990 Rocket 4.0 21:14:05 10° NNW 21:19:19 64° ENE 21:22:04 28° SE
deb Chang Zheng 4 4.0 21:16:18 10° NNE 21:20:31 40° E 21:21:50 31° SE
Cosmos 1842 4.2 21:17:55 10° NNE 21:21:21 28° ENE 21:21:25 28° ENE
Lacrosse 5 1.9 21:16:26 10° NW 21:21:31 77° SW 21:24:05 29° SE
Cosmos 1980 Rocket 2.1 21:18:57 10° S 21:24:31 63° ESE 21:30:10 10° NNE
Cosmos 1975 4.4 21:22:10 10° SW 21:26:00 38° WNW 21:29:51 10° N
H-2A R/B 3.8 21:27:29 15° ENE 21:27:58 15° ENE 21:30:38 10° NNE
MetOp-B 4.5 21:28:10 32° ESE 21:30:11 47° ENE 21:35:18 10° N
SPOT 5 3.1 21:28:37 34° SE 21:30:24 51° ENE 21:35:02 10° N
CZ-3C R/B 4.4 21:00:18 10° W 21:31:11 25° SW 21:38:22 13° S
Lacrosse 5 rocket 3.6 21:29:30 10° W 21:31:34 14° WSW 21:33:36 10° SSW
ERS-1 Rocket 3.1 21:28:22 18° S 21:32:09 74° WSW 21:37:11 10° NNW
Cosmos 1666 3.5 21:35:55 35° ENE 21:35:55 35° ENE 21:38:42 10° NNE
Cosmos 1459 Rocket 3.9 21:30:21 10° S 21:36:24 88° W 21:42:33 10° N
Cosmos 1725 Rocket 4.2 21:37:54 32° SE 21:40:18 48° E 21:46:16 10° NNE
Cosmos 2058 Rocket 3.3 21:41:00 48° ESE 21:41:21 49° E 21:45:43 10° NNE
CZ-4 DEB 4.2 21:40:10 23° SW 21:41:29 34° W 21:44:24 10° NNW
Cosmos 1763 Rocket 3.3 21:40:09 10° SSW 21:45:15 80° ESE 21:50:21 10° NNE
Cosmos 1606 Rocket 3.4 21:43:37 31° S 21:45:41 87° E 21:50:08 10° N
Cosmos 2098 Rocket 4.0 21:41:42 24° SSE 21:45:48 60° E 21:51:23 10° NNE
SPOT 1/Viking Rocket 4.0 21:45:54 40° E 21:46:50 44° ENE 21:51:46 10° N
Cosmos 2263 Rocket 3.3 21:45:07 10° N 21:49:52 28° NE 21:50:51 26° ENE
YAOGAN 6 2.9 21:50:43 56° NE 21:50:43 56° NE 21:54:01 10° N
Terra 3.5 21:54:47 19° ENE 21:54:47 19° ENE 21:57:45 10° NNE
Cosmos 1340 3.1 21:50:51 10° NNW 21:54:35 58° W 21:55:15 49° SW
Cosmos 1125 Rocket 3.6 21:50:08 10° NNW 21:55:16 54° ENE 21:55:59 50° E
Meteor 1-15 Rocket 4.3 21:56:10 44° SSE 21:57:50 61° E 22:03:36 10° NNE
Cosmos 2322 Rocket 2.5 21:58:38 44° E 21:58:38 44° E 22:03:24 10° NE
OAO 2 Rocket 4.4 21:57:54 10° WSW 22:01:47 30° SSW 22:01:47 30° SSW
Cosmos 1939 Rocket 4.3 22:00:58 24° SW 22:02:47 36° W 22:06:41 10° NNW
Cosmos 2233 Rocket 4.2 22:03:44 45° E 22:04:04 45° E 22:09:58 10° NNE
Cosmos 1726 Rocket 3.9 22:07:22 40° SW 22:08:44 62° W 22:13:07 10° N
Cosmos 841 Rocket 3.6 22:03:33 10° SSW 22:08:47 73° WNW 22:14:01 10° NNE
USA 215 3.9 22:06:05 29° E 22:08:58 45° NNE 22:15:07 10° NW
Meteor 2-9 Rocket 4.0 22:08:47 46° S 22:10:30 87° E 22:15:55 10° N
Cosmos 2360 4.3 22:06:50 10° SSW 22:12:33 77° WNW 22:18:19 10° NNE
Cosmos 405 Rocket 4.3 22:11:55 10° N 22:13:54 27° NNE 22:13:54 27° NNE
MetOp-A 4.3 22:15:10 48° SSW 22:16:34 68° WSW 22:21:56 10° NNW
Cosmos 540 Rocket 4.3 22:22:20 38° NE 22:22:20 38° NE 22:25:40 10° NNE
ASTEX 1 3.9 22:18:38 10° N 22:23:33 57° W 22:25:07 39° SW
Tiangong 1 4.2 22:22:34 10° W 22:22:45 11° W 22:22:45 11° W
Cosmos 372 Rocket 4.1 22:30:04 10° NNW 22:34:40 67° NNE 22:34:40 67° NNE
H-2A R/B 3.7 22:35:03 25° WSW 22:35:29 26° W 22:38:59 10° NW
Cosmos 1375 Rocket 4.4 22:34:44 36° SSW 22:37:38 87° ESE 22:44:17 10° NNE
SL-08 RB Rocket 4.3 22:44:03 57° NW 22:44:03 57° NW 22:47:53 10° NNW
Cosmos 2228 4.1 22:44:11 43° NW 22:44:11 43° NW 22:47:37 10° N
SL-16 R/B 2.4 22:54:57 66° W 22:55:13 67° WNW 23:00:54 10° NNE
ARGOS 3.8 22:57:55 48° W 22:57:55 48° W 23:03:09 10° NNW
CZ-4B R/B 4.1 22:56:05 10° N 22:59:59 49° NW 22:59:59 49° NW
Cosmos 1844 Rocket 4.3 22:57:14 10° N 23:01:08 24° NE 23:01:08 24° NE
Lacrosse 5 4.3 23:01:42 10° W 23:03:17 12° WSW 23:03:17 12° WSW
H-2A R/B 2.8 23:08:08 48° NNW 23:08:08 48° NNW 23:11:45 10° NNW
Cosmos 2360 Rocket 3.6 23:11:52 28° NE 23:11:52 28° NE 23:14:28 10° NNE
Cosmos 1980 Rocket 4.4 23:04:35 10° WSW 23:09:00 23° NW 23:13:27 10° N
Terra 3.5 23:33:41 31° NW 23:33:41 31° NW 23:36:22 10° NNW
Cosmos 2263 Rocket 3.3 23:28:41 10° NW 23:32:32 38° WNW 23:32:32 38° WNW
Cosmos 2322 Rocket 3.9 23:40:22 23° W 23:42:17 29° NW 23:47:08 10° N
USA 215 3.8 23:53:25 50° WNW 23:53:25 50° WNW 23:58:19 10° NW
